Location: Kresge Environmental Education Center
(43.1138°N, 83.2433°W)
Time: 21:34:15
(UTC-05:00)

Daily predictions for brighter satellites

Satellite Brightness Start Highest point End
(mag) Time Altitude Azimuth Time Altitude Azimuth Time Altitude Azimuth
BREEZE-M DEB (TANK) 4.4 18:24:38 10° WSW 18:29:14 80° NNW 18:49:52 10° ENE
Cosmos 1745 Rocket 4.0 18:34:46 10° S 18:41:03 70° E 18:47:18 10° NNE
Cosmos 2151 Rocket 4.2 18:39:20 10° SSE 18:43:25 35° E 18:47:33 10° NNE
Cosmos 1812 2.8 18:41:25 10° N 18:45:14 55° E 18:49:01 10° SSE
NOSS 2-2 (E) 4.2 18:45:17 10° SW 18:49:20 57° NW 18:54:08 10° NNE
NOAA 12 4.2 18:44:19 10° SSE 18:49:31 60° ENE 18:54:47 10° N
Cosmos 1386 Rocket 4.4 18:45:19 10° S 18:51:20 63° E 18:57:17 10° NNE
METEOR-M 4.2 18:47:36 10° SSE 18:52:52 62° ENE 18:58:09 10° N
GEOS 3 Rocket 4.3 18:49:25 10° NE 18:54:13 35° ESE 18:59:00 10° S
HJ-1C 4.4 18:54:52 10° SE 18:57:42 26° ENE 19:00:34 10° NNE
Cosmos 2360 Rocket 2.8 18:52:37 10° N 18:57:50 36° ENE 19:03:01 10° ESE
Cosmos 1980 Rocket 4.1 18:53:26 10° NW 18:58:31 35° WSW 19:03:37 10° SSW
Cosmos 2219 Rocket 4.0 18:57:46 10° NNE 19:00:09 13° NE 19:02:23 10° ENE
Cosmos 1975 Rocket 4.3 19:01:37 10° NNW 19:05:46 46° W 19:09:53 10° SSW
Helios 1B rocket 4.4 19:07:49 12° ESE 19:07:49 12° ESE 19:08:29 10° ESE
SKYMED 2 4.4 19:03:04 10° N 19:07:19 56° WNW 19:11:34 10° SSW
Cosmos 1602 4.4 19:08:36 10° SSE 19:12:05 33° E 19:15:38 10° NNE
Cosmos 1633 3.2 19:09:11 10° SSE 19:12:33 35° E 19:15:56 10° NNE
Cosmos 1025 Rocket 4.3 19:14:31 10° NNE 19:17:45 20° ENE 19:18:31 19° E
FREGAT/IRIS 2.6 19:14:43 10° SSE 19:17:48 88° E 19:20:54 10° N
ALOS 2.3 19:15:55 10° SSE 19:20:29 59° ENE 19:25:06 10° N
Cosmos 1833 4.4 19:16:04 10° S 19:21:33 50° ESE 19:27:00 10° NE
Cosmos 1536 Rocket 3.5 19:20:13 10° N 19:24:42 86° E 19:29:11 10° S
Cosmos 2333 Rocket 3.8 19:22:18 10° N 19:25:50 16° NE 19:27:00 15° ENE
Cosmos 1818 3.5 19:23:19 10° SSW 19:28:45 82° ESE 19:34:14 10° NE
SL-16 R/B 3.1 19:26:19 10° NW 19:31:50 52° WSW 19:37:17 10° S
SJ-6B 3.3 19:30:04 10° S 19:34:04 64° WSW 19:38:00 10° NNW
FengYun 1-2 T 4.1 19:30:43 10° SSE 19:36:12 80° ENE 19:41:43 10° NNW
TSX-5 3.0 19:34:01 10° SSW 19:37:12 78° ESE 19:39:06 22° NNE
Cosmos 1023 Rocket 4.5 19:32:42 10° S 19:37:40 56° ESE 19:42:41 10° NNE
Resurs 01 Rocket 1.5 19:35:33 10° SSE 19:39:56 72° ENE 19:44:21 10° N
Cosmos 1340 2.7 19:37:01 10° NNW 19:40:49 81° W 19:44:35 10° S
Meteor 1-19 Rocket 4.1 19:36:18 10° N 19:41:59 75° E 19:47:44 10° SSE
Cosmos 407 Rocket 4.2 19:37:03 10° SW 19:42:13 58° WNW 19:47:28 10° NNE
Cosmos 1238 Rocket 1.9 19:39:13 10° N 19:42:16 88° ENE 19:45:13 10° S
Gbstr 26 Del rocket 3.4 19:40:23 10° SSW 19:43:48 33° SE 19:43:57 33° SE
Cosmos 676 Rocket 4.1 19:39:06 10° SSW 19:44:17 79° WNW 19:49:32 10° NNE
DELTA 2 R/B (1) 4.1 19:40:09 10° W 19:45:35 51° SSW 19:48:39 25° SE
Cosmos 1570 Rocket 4.2 19:41:13 10° N 19:46:16 48° ENE 19:48:44 28° SE
Cosmos 2181 Rocket 4.0 19:41:20 10° N 19:47:36 89° W 19:53:55 10° S
Cosmos 2322 Rocket 3.8 19:44:32 10° NW 19:49:36 36° WSW 19:54:40 10° S
Tiangong 2 2.7 19:51:20 10° W 19:53:58 26° SSW 19:54:33 24° S
Meteor 1-13 Rocket 4.4 19:50:57 10° NNW 19:56:28 73° W 20:02:04 10° S
Cosmos 1300 Rocket 3.7 19:52:33 10° SSW 19:56:57 76° W 20:01:24 10° N
Genesis I 3.6 19:53:16 10° NNW 19:56:54 43° NE 19:56:54 43° NE
Cosmos 1536 2.6 19:55:19 10° S 19:59:16 69° E 20:03:15 10° NNE
Cosmos 2322 3.7 19:56:50 10° NNW 20:02:35 83° WSW 20:07:30 14° SSE
Resurs 1-3 3.7 19:58:16 10° S 20:02:39 78° WSW 20:07:03 10° NNW
CZ-2D R/B 3.1 20:03:05 37° SSE 20:04:32 90° E 20:08:22 10° NNW
FENGYUN 3A 4.3 20:00:40 10° S 20:05:59 57° W 20:11:20 10° NNW
Cosmos 1140 Rocket 3.5 20:02:09 10° SSW 20:07:16 80° WNW 20:12:28 10° NNE
Cosmos 2074 Rocket 3.9 20:01:15 10° S 20:07:24 67° E 20:13:38 10° NNE
Cosmos 2184 Rocket 3.9 20:01:53 10° S 20:08:07 65° E 20:14:20 10° NNE
USA 186 4.4 20:10:59 12° N 20:10:59 12° N 20:11:15 10° N
Meteor 1-23 Rocket 4.1 20:02:33 10° N 20:08:23 73° ENE 20:12:58 17° SSE
Cosmos 2208 Rocket 4.0 20:05:08 10° NNW 20:10:36 72° ENE 20:12:31 41° SE
H-2A R/B 3.5 20:10:15 10° S 20:13:51 49° W 20:17:29 10° NNW
COSMOS 2428 2.6 20:09:57 10° NNW 20:15:39 68° ENE 20:16:58 51° ESE
Spot 2 Rocket 4.1 20:11:07 10° S 20:16:03 55° W 20:21:03 10° NNW
Meteor 2-4 Rocket 3.7 20:10:32 10° NNW 20:16:08 80° W 20:21:33 10° S
Cosmos 2237 4.1 20:10:26 10° NNW 20:16:13 86° ENE 20:18:33 38° SSE
SAR-Lupe-1 4.4 20:16:53 64° NW 20:16:53 64° NW 20:20:03 10° NNW
Cosmos 2333 4.2 20:13:29 10° NNW 20:19:11 64° ENE 20:20:01 57° ESE
Cosmos 614 Rocket 3.9 20:14:32 10° SSW 20:19:38 82° WNW 20:24:44 10° NNE
SAR-Lupe-4 4.2 20:20:39 51° SW 20:20:59 54° W 20:24:30 10° NNW
Helios 1A 3.1 20:21:30 56° SSW 20:22:16 73° WSW 20:26:27 10° NNW
Cosmos 2237 Rocket 3.4 20:20:09 10° N 20:23:53 27° NNE 20:23:53 27° NNE
Cosmos 1850 Rocket 4.0 20:20:46 10° SSW 20:26:04 86° WNW 20:31:03 12° NNE
Okean 1 Rocket 4.1 20:23:36 10° SSW 20:27:55 47° WNW 20:32:16 10° N
Nadezhda 3 Rocket 4.2 20:22:05 10° N 20:27:16 47° NE 20:27:16 47° NE
USA 229 DEB 3.7 20:23:40 10° NNW 20:30:47 68° NE 20:32:15 55° ESE
USA 229 3.7 20:23:46 10° NNW 20:30:53 67° NE 20:32:19 55° ESE
Envisat 3.2 20:33:05 57° NNE 20:33:05 57° NNE 20:37:17 10° N
Cosmos 2285 Rocket 3.9 20:27:01 10° NNW 20:33:29 75° ENE 20:34:37 61° SE
Cosmos 2219 3.1 20:34:05 10° SSW 20:39:50 89° W 20:41:02 58° NNE
Cosmos 2360 Rocket 3.6 20:36:42 10° NW 20:41:47 35° WSW 20:46:51 10° S
Helios 1B rocket 4.2 20:44:11 25° SW 20:44:11 25° SW 20:46:05 10° SSW
ERS-1 Rocket 4.4 20:45:34 27° N 20:45:34 27° N 20:47:57 10° N
Cosmos 2219 Rocket 2.5 20:39:39 10° NNW 20:44:08 53° N 20:44:08 53° N
ATLAS 2AS CENTAUR R/B 4.5 20:42:03 10° NNW 20:47:57 21° NNE 20:49:25 20° NE
Cosmos 1025 Rocket 4.4 20:51:27 10° NNW 20:55:29 37° W 20:55:30 37° W
SL-16 R/B 4.1 20:52:23 10° N 20:54:14 17° NNE 20:54:14 17° NNE
Meteor 2-13 Rocket 4.5 20:56:34 10° SSW 21:02:37 73° W 21:08:44 10° N
NOSS 3-1 (C) 4.2 20:56:54 10° NNW 21:03:46 55° NE 21:03:46 55° NE
Cosmos 2333 Rocket 3.1 21:05:13 10° NNW 21:09:03 44° NNW 21:09:03 44° NNW
BREEZE-M DEB (TANK) 4.5 21:10:21 10° W 21:12:05 29° WSW 21:12:05 29° WSW
Cosmos 2237 Rocket 4.5 22:03:58 10° NW 22:05:44 20° NW 22:05:44 20° NW
